| time (UTC) | temp C | wind direction | speed KPH | gust KPH | rain 1hr cm | rain 24hr cm | rain mn cm | humidity % | barometer mb |
| 20260506201525 | 6 | 0.0 | 0.0 | 0.00 | 0.00 | 0.00 | 48 | 1014.0 | |
| 20260506200044 | 7 | 0.0 | 0.0 | 0.00 | 0.00 | 0.00 | 46 | 1013.9 | |
| 20260506194520 | 7 | 0.0 | 0.0 | 0.00 | 0.00 | 0.00 | 44 | 1013.9 | |
| 20260506193044 | 8 | 0.0 | 0.0 | 0.00 | 0.00 | 0.00 | 44 | 1013.9 | |
| 20260506191522 | 8 | 0.0 | 0.0 | 0.00 | 0.00 | 0.00 | 41 | 1013.8 | |
| 20260506184517 | 9 | 0.0 | 0.0 | 0.00 | 0.00 | 0.00 | 38 | 1013.8 | |
| 20260506183039 | 10 | 0.0 | 0.0 | 0.00 | 0.00 | 0.00 | 38 | 1013.8 | |
| 20260506181542 | 10 | 0.0 | 0.0 | 0.00 | 0.00 | 0.00 | 36 | 1013.8 | |
| 20260506180146 | 10 | 0.0 | 0.0 | 0.00 | 0.00 | 0.00 | 36 | 1013.5 | |
| 20260506174546 | 10 | 0.0 | 0.0 | 0.00 | 0.00 | 0.00 | 36 | 1013.7 | |
| 20260506173145 | 10 | 0.0 | 0.0 | 0.00 | 0.00 | 0.00 | 35 | 1013.7 | |
| 20260506171542 | 11 | 0.0 | 0.0 | 0.00 | 0.00 | 0.00 | 35 | 1013.7 | |
| 20260506170042 | 11 | 0.0 | 0.0 | 0.00 | 0.00 | 0.00 | 35 | 1013.4 | |
| 20260506164644 | 11 | 0.0 | 0.0 | 0.00 | 0.00 | 0.00 | 35 | 1013.3 | |
| 20260506161522 | 11 | 0.0 | 0.0 | 0.00 | 0.00 | 0.00 | 35 | 1013.5 | |
| 20260506160022 | 11 | 0.0 | 0.0 | 0.00 | 0.00 | 0.00 | 35 | 1013.4 | |
| 20260506154527 | 12 | 0.0 | 0.0 | 0.00 | 0.00 | 0.00 | 34 | 1013.4 | |
| 20260506153032 | 12 | 0.0 | 0.0 | 0.00 | 0.00 | 0.00 | 34 | 1013.6 | |
| 20260506150039 | 12 | 0.0 | 0.0 | 0.00 | 0.00 | 0.00 | 34 | 1013.7 | |
| 20260506144544 | 12 | 0.0 | 0.0 | 0.00 | 0.00 | 0.00 | 34 | 1013.4 | |
| 20260506143044 | 12 | 0.0 | 0.0 | 0.00 | 0.00 | 0.00 | 34 | 1013.5 | |
| 20260506141542 | 12 | 0.0 | 0.0 | 0.00 | 0.00 | 0.00 | 34 | 1013.3 | |
| 20260506140044 | 12 | 0.0 | 0.0 | 0.00 | 0.00 | 0.00 | 34 | 1013.4 | |
| 20260506134542 | 13 | 0.0 | 0.0 | 0.00 | 0.00 | 0.00 | 34 | 1013.4 | |
| 20260506133047 | 13 | 0.0 | 0.0 | 0.00 | 0.00 | 0.00 | 34 | 1013.4 | |
| 20260506131547 | 13 | 0.0 | 0.0 | 0.00 | 0.00 | 0.00 | 34 | 1013.3 | |
| 20260506130015 | 13 | 0.0 | 0.0 | 0.00 | 0.00 | 0.00 | 35 | 1013.2 | |
| 20260506124519 | 12 | 0.0 | 0.0 | 0.00 | 0.00 | 0.00 | 35 | 1013.3 | |
| 20260506123025 | 13 | 0.0 | 0.0 | 0.00 | 0.00 | 0.00 | 36 | 1013.2 | |
| 20260506120030 | 13 | 0.0 | 0.0 | 0.00 | 0.00 | 0.00 | 35 | 1013.1 | |
| 20260506113038 | 13 | 0.0 | 0.0 | 0.00 | 0.00 | 0.00 | 32 | 1013.2 | |
| 20260506111647 | 13 | 0.0 | 0.0 | 0.00 | 0.00 | 0.00 | 32 | 1013.3 | |
| 20260506110039 | 13 | 0.0 | 0.0 | 0.00 | 0.00 | 0.00 | 32 | 1013.1 | |
| 20260506104545 | 12 | 0.0 | 0.0 | 0.00 | 0.00 | 0.00 | 32 | 1013.1 | |
| 20260506103137 | 12 | 0.0 | 0.0 | 0.00 | 0.00 | 0.00 | 33 | 1013.1 | |
| 20260506101544 | 12 | 0.0 | 0.0 | 0.00 | 0.00 | 0.00 | 33 | 1013.1 | |
| 20260506100034 | 12 | 0.0 | 0.0 | 0.00 | 0.00 | 0.00 | 33 | 1013.0 | |
| 20260506094543 | 12 | 0.0 | 0.0 | 0.00 | 0.00 | 0.00 | 33 | 1013.0 | |
| 20260506093016 | 12 | 0.0 | 0.0 | 0.00 | 0.00 | 0.00 | 34 | 1012.9 | |
| 20260506091520 | 12 | 0.0 | 0.0 | 0.00 | 0.00 | 0.00 | 34 | 1012.8 | |
| 20260506083028 | 12 | 0.0 | 0.0 | 0.00 | 0.00 | 0.00 | 34 | 1012.9 | |
| 20260506081536 | 13 | 0.0 | 0.0 | 0.00 | 0.00 | 0.00 | 36 | 1012.8 | |
| 20260506073025 | 12 | 0.0 | 0.0 | 0.00 | 0.00 | 0.00 | 40 | 1012.4 | |
| 20260506071547 | 13 | 0.0 | 0.0 | 0.00 | 0.00 | 0.00 | 40 | 1012.2 | |
| 20260506061543 | 12 | 0.0 | 0.0 | 0.00 | 0.00 | 0.00 | 45 | 1011.9 | |
| 20260506044544 | 6 | 0.0 | 0.0 | 0.00 | 0.00 | 0.00 | 56 | 1011.0 | |
| 20260506043039 | 5 | 0.0 | 0.0 | 0.00 | 0.00 | 0.00 | 57 | 1010.8 | |
| 20260506041544 | 4 | 0.0 | 0.0 | 0.00 | 0.00 | 0.00 | 58 | 1010.9 | |
| 20260506040144 | 3 | 0.0 | 0.0 | 0.00 | 0.00 | 0.00 | 58 | 1010.6 | |
| 20260506034644 | 2 | 0.0 | 0.0 | 0.00 | 0.00 | 0.00 | 58 | 1010.8 | |
| 20260506033045 | 2 | 0.0 | 0.0 | 0.00 | 0.00 | 0.00 | 58 | 1010.6 | |
| 20260506031549 | 2 | 0.0 | 0.0 | 0.00 | 0.00 | 0.00 | 57 | 1010.2 | |
| 20260506030044 | 2 | 0.0 | 0.0 | 0.00 | 0.00 | 0.00 | 57 | 1010.1 | |
| 20260506024543 | 2 | 0.0 | 0.0 | 0.00 | 0.00 | 0.00 | 57 | 1009.9 | |
| 20260506023015 | 2 | 0.0 | 0.0 | 0.00 | 0.00 | 0.00 | 56 | 1009.8 | |
| 20260506020028 | 2 | 0.0 | 0.0 | 0.00 | 0.00 | 0.00 | 56 | 1009.5 | |
| 20260506014527 | 2 | 0.0 | 0.0 | 0.00 | 0.00 | 0.00 | 55 | 1009.4 | |
| 20260506013032 | 3 | 0.0 | 0.0 | 0.00 | 0.00 | 0.00 | 55 | 1009.4 | |
| 20260506011535 | 3 | 0.0 | 0.0 | 0.00 | 0.00 | 0.00 | 55 | 1009.0 | |
| 20260506010040 | 3 | 0.0 | 0.0 | 0.00 | 0.00 | 0.00 | 54 | 1009.3 | |
| 20260506004544 | 3 | 0.0 | 0.0 | 0.00 | 0.00 | 0.00 | 54 | 1009.1 | |
| 20260506003043 | 3 | 0.0 | 0.0 | 0.00 | 0.00 | 0.00 | 54 | 1009.1 | |
| 20260506001547 | 3 | 0.0 | 0.0 | 0.00 | 0.00 | 0.00 | 53 | 1008.9 | |
| 20260506000052 | 3 | 0.0 | 0.0 | 0.00 | 0.00 | 0.00 | 53 | 1008.8 | |
| 20260505234544 | 3 | 0.0 | 0.0 | 0.00 | 0.00 | 0.00 | 52 | 1008.7 | |
| 20260505233043 | 4 | 0.0 | 0.0 | 0.00 | 0.00 | 0.00 | 51 | 1008.7 | |
| 20260505231542 | 4 | 0.0 | 0.0 | 0.00 | 0.00 | 0.00 | 51 | 1008.6 | |
| 20260505230015 | 4 | 0.0 | 0.0 | 0.00 | 0.00 | 0.00 | 50 | 1008.2 | |
| 20260505224519 | 4 | 0.0 | 0.0 | 0.00 | 0.00 | 0.00 | 50 | 1008.1 | |
| 20260505221530 | 5 | 0.0 | 0.0 | 0.00 | 0.00 | 0.00 | 48 | 1008.0 | |
| 20260505220037 | 5 | 0.0 | 0.0 | 0.00 | 0.00 | 0.00 | 47 | 1008.1 | |
| 20260505214537 | 5 | 0.0 | 0.0 | 0.00 | 0.00 | 0.00 | 46 | 1008.0 | |
| 20260505213042 | 5 | 0.0 | 0.0 | 0.00 | 0.00 | 0.00 | 46 | 1007.9 | |
| 20260505211535 | 6 | 0.0 | 0.0 | 0.00 | 0.00 | 0.00 | 45 | 1007.8 | |
| 20260505204535 | 6 | 0.0 | 0.0 | 0.00 | 0.00 | 0.00 | 44 | 1007.3 | |
| 20260505203042 | 6 | 0.0 | 0.0 | 0.00 | 0.00 | 0.00 | 43 | 1007.3 |